Regional Weather Roundup
Issued by NWS

Home | Current Version | Previous Version | Text Only | Print | Product List | Glossary Off
Versions: 1 2 3 4 5 6 7 8 9 10 11 12 13 14 15 16 17 18 19 20 21 22 23 24 25 26 27 28 29 30 31 32 33 34 35 36 37 38 39 40 41 42 43 44 45 46 47 48 49 50

000
ASUS43 KLSX 221657
RWRMO

WEATHER SUMMARY FOR MISSOURI
NATIONAL WEATHER SERVICE SPRINGFIELD MO
1200 PM CDT TUE AUG 22 2017

NOTE: "FAIR" INDICATES FEW OR NO CLOUDS BELOW 12,000 FEET WITH NO
       SIGNIFICANT WEATHER AND/OR OBSTRUCTIONS TO VISIBILITY.
       CURRENT SKY AND/OR WEATHER CONDITIONS ARE NOT AVAILABLE FOR
       CHILLICOTHE AND FARMINGTON.

MOZ001>031-035>038-043-044-053-054-221800-
...NORTHERN AND WESTERN MISSOURI...

CITY           SKY/WX    TMP DP  RH WIND       PRES   REMARKS
KANSAS CTY INT PTSUNNY   76  67  73 N9        30.12S
KANSAS C DTWN  PTSUNNY   76  68  76 N12       30.11R
ST JOSEPH      PTSUNNY   73  67  81 N13       30.14R
CHILLICOTHE      N/A     77  66  68 VRB6      30.10S

$$
MOZ066>068-077>081-088>096-101>105-221800-
...SOUTHWEST MISSOURI...

CITY           SKY/WX    TMP DP  RH WIND       PRES   REMARKS
SPRINGFIELD    CLOUDY    69  69 100 SE3       30.10F
JOPLIN         PTSUNNY   80  73  79 E5        30.09F
BRANSON        CLOUDY    68  68 100 SW6       30.14R

$$
MOZ032>034-039>042-045>050-055>058-069>072-221800-
...CENTRAL MISSOURI...

CITY           SKY/WX    TMP DP  RH WIND       PRES   REMARKS
COLUMBIA       NOT AVBL
JEFFERSON CITY PTSUNNY   74  73  97 W8        30.07S
ROLLA          CLOUDY    74  70  87 W15G22    30.10S
SEDALIA        PTSUNNY   76  70  82 N6        30.12R
WARRENSBURG    CLOUDY    73  64  73 N7        30.11R

$$
MOZ051-052-059>065-221800-
...EAST CENTRAL MISSOURI...

CITY           SKY/WX    TMP DP  RH WIND       PRES   REMARKS
ST LOUIS INTL  LGT RAIN  73  72  96 NW15      30.03R FOG

$$
MOZ072>076-082>087-097>100-106>115-221800-
...SOUTH CENTRAL AND SOUTHEAST MISSOURI...

CITY           SKY/WX    TMP DP  RH WIND       PRES   REMARKS
CAPE GIRARDEAU CLOUDY    84  73  69 W9        29.96F HX  90
POPLAR BLUFF   CLOUDY    85  76  74 SW7       29.97F HX  94
WEST PLAINS    CLOUDY    71  68  90 NW5       30.10R

$$



USA.gov is the U.S. government's official web portal to all federal, state and local government web resources and services.